Location: Chervonnoye
(48.6000°N, 34.4000°E)
Time: 23:52:16
(UTC+00:00)

ISS - Visible Passes

Search period start: 21 September 2021 00:00
Search period end: 01 October 2021 00:00
Orbit: 419 x 423 km, 51.6° (Epoch: 21 September)

Date Brightness Start Highest point End Pass type
(mag) Time Alt. Az. Time Alt. Az. Time Alt. Az.
21 Sep -3.8 16:35:30 10° WSW 16:38:51 75° SSE 16:41:52 13° ENE visible
21 Sep -2.2 18:12:34 10° W 18:14:52 35° NW 18:14:52 35° NW visible
22 Sep -3.2 17:25:33 10° W 17:28:53 54° N 17:29:48 39° NE visible
22 Sep -0.3 19:02:43 10° WNW 19:02:48 11° WNW 19:02:48 11° WNW visible
23 Sep -3.4 16:38:34 10° W 16:41:56 64° NNW 16:44:42 14° ENE visible
23 Sep -1.7 18:15:45 10° WNW 18:17:41 29° NW 18:17:41 29° NW visible
24 Sep -3.1 17:28:47 10° WNW 17:32:05 48° N 17:32:32 44° NNE visible
25 Sep -3.1 16:41:47 10° W 16:45:05 49° N 16:47:22 18° ENE visible
25 Sep -1.4 18:18:51 10° WNW 18:20:21 24° WNW 18:20:21 24° WNW visible
26 Sep -3.4 17:31:55 10° WNW 17:35:11 56° N 17:35:11 56° N visible
27 Sep -3.2 16:44:57 10° WNW 16:48:15 50° N 16:50:00 24° ENE visible
27 Sep -1.0 18:21:51 10° WNW 18:22:59 19° WNW 18:22:59 19° WNW visible
28 Sep -3.1 15:57:58 10° WNW 16:01:15 48° N 16:04:33 10° ENE visible
28 Sep -3.3 17:34:56 10° WNW 17:37:49 62° WNW 17:37:49 62° WNW visible
29 Sep -3.7 16:47:59 10° WNW 16:51:22 68° NNE 16:52:40 34° E visible
29 Sep -0.7 18:25:01 10° W 18:25:39 14° W 18:25:39 14° W visible
30 Sep -3.4 16:01:02 10° WNW 16:04:23 57° NNE 16:07:33 11° E visible
30 Sep -2.6 17:37:58 10° WNW 17:40:33 39° WSW 17:40:33 39° WSW visible
